When you browse on this site, cookies collect data to enhance your experience and personalize the content and advertising you see.
Visit our Privacy Policy to learn more. By continuing to use the site, you agree to this use of cookies and data.
  • In Hungary
  • List of Countries
  • For 7 days
  • Water Temperature
  • Satellite Maps
  • Weather Map
  • News
  • Weather Widgets
  • user-avatar
    Login

    Hourly Weather Staroe Berkaevo

    Today, 22 May, Wednesday

    Time Temperature Precipitation Wind Pressure Humidity
    00:00 +16°C° 0 mm 2 mps 745 mmHg 77%
    01:00 +15°C° 0 mm 2 mps 745 mmHg 79%
    02:00 +14°C° 0 mm 2 mps 745 mmHg 80%
    03:00 +15°C° 0 mm 2 mps 745 mmHg 80%
    04:00 +15°C° 0 mm 2 mps 745 mmHg 81%
    05:00 +15°C° 0 mm 1 mps 744 mmHg 81%
    06:00 +17°C° 0 mm 2 mps 744 mmHg 75%
    07:00 +19°C° 0 mm 2 mps 744 mmHg 70%
    08:00 +21°C° 0 mm 2 mps 744 mmHg 64%
    09:00 +23°C° 0 mm 2 mps 744 mmHg 59%
    10:00 +24°C° 0 mm 3 mps 743 mmHg 55%
    11:00 +25°C° 0 mm 3 mps 743 mmHg 50%
    12:00 +25°C° 0 mm 3 mps 743 mmHg 48%
    13:00 +26°C° 0 mm 3 mps 742 mmHg 47%
    14:00 +26°C° 0 mm 2 mps 742 mmHg 45%
    15:00 +25°C° 0.2 mm 2 mps 742 mmHg 53%
    16:00 +23°C° 0.2 mm 2 mps 742 mmHg 61%
    17:00 +21°C° 0.2 mm 2 mps 741 mmHg 69%
    18:00 +19°C° 0.2 mm 2 mps 741 mmHg 76%
    19:00 +19°C° 0.2 mm 1 mps 741 mmHg 83%
    20:00 +18°C° 0.2 mm 1 mps 741 mmHg 90%
    21:00 +16°C° 0.6 mm 1 mps 741 mmHg 91%
    22:00 +15°C° 0.6 mm 1 mps 740 mmHg 92%
    23:00 +14°C° 0.6 mm 1 mps 740 mmHg 93%

    Tomorrow, 23 May, Thursday

    Time Temperature Precipitation Wind Pressure Humidity
    00:00 +14°C° 0 mm 1 mps 740 mmHg 94%
    01:00 +14°C° 0 mm 1 mps 741 mmHg 95%
    02:00 +13°C° 0 mm 2 mps 741 mmHg 97%
    03:00 +13°C° 0 mm 2 mps 741 mmHg 96%
    04:00 +13°C° 0 mm 2 mps 741 mmHg 96%
    05:00 +14°C° 0 mm 2 mps 741 mmHg 96%
    06:00 +15°C° 0 mm 2 mps 741 mmHg 90%
    07:00 +16°C° 0 mm 2 mps 741 mmHg 85%
    08:00 +17°C° 0 mm 2 mps 741 mmHg 79%
    09:00 +18°C° 0 mm 3 mps 742 mmHg 75%
    10:00 +19°C° 0 mm 3 mps 742 mmHg 70%
    11:00 +19°C° 0 mm 4 mps 742 mmHg 66%
    12:00 +20°C° 0 mm 4 mps 742 mmHg 64%
    13:00 +20°C° 0 mm 4 mps 742 mmHg 62%
    14:00 +20°C° 0 mm 3 mps 742 mmHg 60%
    15:00 +20°C° 0 mm 3 mps 742 mmHg 60%
    16:00 +19°C° 0 mm 3 mps 742 mmHg 61%
    17:00 +19°C° 0 mm 3 mps 742 mmHg 62%
    18:00 +17°C° 0 mm 3 mps 742 mmHg 67%
    19:00 +14°C° 0 mm 3 mps 742 mmHg 71%
    20:00 +13°C° 0 mm 2 mps 743 mmHg 75%
    21:00 +12°C° 0 mm 2 mps 743 mmHg 76%
    22:00 +12°C° 0 mm 2 mps 743 mmHg 77%
    23:00 +10°C° 0 mm 2 mps 744 mmHg 77%

    Day after tomorrow, 24 May, Friday

    Time Temperature Precipitation Wind Pressure Humidity
    00:00 +9°C° 0 mm 2 mps 744 mmHg 78%
    01:00 +9°C° 0 mm 2 mps 744 mmHg 79%
    02:00 +8°C° 0 mm 2 mps 744 mmHg 80%
    03:00 +9°C° 0 mm 2 mps 744 mmHg 79%
    04:00 +9°C° 0 mm 2 mps 744 mmHg 77%
    05:00 +10°C° 0 mm 3 mps 744 mmHg 76%
    06:00 +11°C° 0 mm 3 mps 744 mmHg 73%
    07:00 +12°C° 0 mm 3 mps 744 mmHg 71%
    08:00 +13°C° 0 mm 3 mps 745 mmHg 69%
    09:00 +14°C° 0 mm 3 mps 744 mmHg 69%
    10:00 +16°C° 0 mm 3 mps 744 mmHg 68%
    11:00 +16°C° 0 mm 3 mps 744 mmHg 68%
    12:00 +18°C° 0 mm 3 mps 744 mmHg 63%
    13:00 +20°C° 0 mm 3 mps 744 mmHg 58%
    14:00 +22°C° 0 mm 4 mps 744 mmHg 53%
    15:00 +21°C° 0.2 mm 3 mps 743 mmHg 58%
    16:00 +21°C° 0.2 mm 3 mps 743 mmHg 64%
    17:00 +20°C° 0.2 mm 3 mps 743 mmHg 70%
    18:00 +19°C° 0.3 mm 3 mps 742 mmHg 75%
    19:00 +18°C° 0.3 mm 3 mps 742 mmHg 81%
    20:00 +16°C° 0.3 mm 3 mps 742 mmHg 86%
    21:00 +16°C° 0.9 mm 3 mps 742 mmHg 89%
    22:00 +16°C° 0.9 mm 3 mps 741 mmHg 92%
    23:00 +14°C° 0.9 mm 3 mps 741 mmHg 94%

    25 May, Saturday

    Time Temperature Precipitation Wind Pressure Humidity
    00:00 +14°C° 0.4 mm 3 mps 741 mmHg 95%
    01:00 +14°C° 0.4 mm 3 mps 740 mmHg 95%
    02:00 +14°C° 0.4 mm 3 mps 740 mmHg 96%
    03:00 +14°C° 1 mm 3 mps 740 mmHg 96%
    04:00 +14°C° 1 mm 3 mps 739 mmHg 96%
    05:00 +14°C° 1 mm 3 mps 739 mmHg 96%
    06:00 +16°C° 0.7 mm 3 mps 739 mmHg 96%
    07:00 +16°C° 0.7 mm 3 mps 739 mmHg 95%
    08:00 +16°C° 0.7 mm 3 mps 738 mmHg 95%
    09:00 +17°C° 0.1 mm 2 mps 738 mmHg 92%
    10:00 +18°C° 0.1 mm 2 mps 738 mmHg 90%
    11:00 +19°C° 0.1 mm 2 mps 738 mmHg 88%
    12:00 +19°C° 0.6 mm 2 mps 738 mmHg 86%
    13:00 +20°C° 0.6 mm 2 mps 737 mmHg 84%
    14:00 +20°C° 0.6 mm 2 mps 737 mmHg 81%
    15:00 +20°C° 0.7 mm 2 mps 737 mmHg 83%
    16:00 +20°C° 0.7 mm 2 mps 736 mmHg 85%
    17:00 +19°C° 0.7 mm 2 mps 736 mmHg 87%
    18:00 +18°C° 1 mm 2 mps 736 mmHg 89%
    19:00 +17°C° 1 mm 2 mps 736 mmHg 92%
    20:00 +16°C° 1 mm 2 mps 735 mmHg 94%
    21:00 +15°C° 0.1 mm 2 mps 735 mmHg 95%
    22:00 +14°C° 0.1 mm 2 mps 735 mmHg 96%
    23:00 +13°C° 0.1 mm 3 mps 735 mmHg 97%

    26 May, Sunday

    Time Temperature Precipitation Wind Pressure Humidity
    00:00 +13°C° 0 mm 2 mps 735 mmHg 96%
    01:00 +12°C° 0 mm 2 mps 735 mmHg 95%
    02:00 +10°C° 0 mm 2 mps 735 mmHg 95%
    03:00 +10°C° 0 mm 2 mps 735 mmHg 94%
    04:00 +10°C° 0 mm 2 mps 735 mmHg 92%
    05:00 +10°C° 0 mm 2 mps 735 mmHg 91%
    06:00 +13°C° 0 mm 2 mps 735 mmHg 86%
    07:00 +13°C° 0 mm 3 mps 735 mmHg 81%
    08:00 +16°C° 0 mm 3 mps 735 mmHg 76%
    09:00 +17°C° 0.1 mm 3 mps 735 mmHg 69%
    10:00 +18°C° 0.1 mm 4 mps 735 mmHg 63%
    11:00 +17°C° 0.1 mm 5 mps 735 mmHg 56%
    12:00 +18°C° 0 mm 4 mps 735 mmHg 56%
    13:00 +18°C° 0 mm 4 mps 735 mmHg 56%
    14:00 +17°C° 0 mm 4 mps 735 mmHg 56%
    15:00 +17°C° 0 mm 4 mps 735 mmHg 56%
    16:00 +17°C° 0 mm 4 mps 735 mmHg 57%
    17:00 +17°C° 0 mm 4 mps 735 mmHg 58%
    18:00 +14°C° 0 mm 3 mps 735 mmHg 65%
    19:00 +14°C° 0 mm 2 mps 735 mmHg 73%
    20:00 +12°C° 0 mm 2 mps 735 mmHg 80%
    21:00 +10°C° 0 mm 2 mps 735 mmHg 84%
    22:00 +10°C° 0 mm 2 mps 735 mmHg 88%
    23:00 +9°C° 0 mm 2 mps 735 mmHg 91%

    27 May, Monday

    Time Temperature Precipitation Wind Pressure Humidity
    00:00 +9°C° 0 mm 2 mps 735 mmHg 93%
    01:00 +9°C° 0 mm 2 mps 735 mmHg 95%
    02:00 +9°C° 0 mm 2 mps 734 mmHg 97%
    03:00 +9°C° 0.4 mm 2 mps 734 mmHg 97%
    04:00 +9°C° 0.4 mm 2 mps 734 mmHg 96%
    05:00 +10°C° 0.4 mm 2 mps 734 mmHg 96%
    06:00 +10°C° 1.3 mm 2 mps 734 mmHg 95%
    07:00 +10°C° 1.3 mm 3 mps 734 mmHg 94%
    08:00 +11°C° 1.3 mm 3 mps 734 mmHg 93%
    09:00 +12°C° 0.4 mm 4 mps 735 mmHg 87%
    10:00 +12°C° 0.4 mm 4 mps 735 mmHg 82%
    11:00 +13°C° 0.4 mm 5 mps 735 mmHg 76%
    12:00 +13°C° 0.1 mm 5 mps 735 mmHg 73%
    13:00 +13°C° 0.1 mm 5 mps 735 mmHg 69%
    14:00 +13°C° 0.1 mm 5 mps 736 mmHg 66%
    15:00 +13°C° 0 mm 5 mps 736 mmHg 67%
    16:00 +13°C° 0 mm 4 mps 736 mmHg 68%
    17:00 +12°C° 0 mm 4 mps 736 mmHg 70%
    18:00 +11°C° 0 mm 4 mps 736 mmHg 73%
    19:00 +11°C° 0 mm 3 mps 736 mmHg 77%
    20:00 +10°C° 0 mm 3 mps 736 mmHg 81%
    21:00 +9°C° 0 mm 3 mps 737 mmHg 84%
    22:00 +8°C° 0 mm 3 mps 737 mmHg 88%
    23:00 +7°C° 0 mm 3 mps 737 mmHg 91%
    Show more